EW1135 Weather Reports


time (UTC)temp
C
wind
direction
speed
KPH
gust
KPH
rain 1hr
cm
rain 24hr
cm
rain mn
cm
humidity
%
barometer
mb
20260505124524 11 241 6.4 0.0 0.00 0.00 0.00 90 1013.3
20260505123022 11 208 4.8 0.0 0.00 0.00 0.00 90 1013.3
20260505121526 11 231 4.8 0.0 0.00 0.00 0.00 89 1013.3
20260505120048 12 233 9.7 0.0 0.00 0.00 0.00 89 1013.2
20260505114522 12 239 11.3 0.0 0.00 0.00 0.00 90 1013.2
20260505113021 12 227 9.7 0.0 0.00 0.00 0.00 89 1013.2
20260505111520 12 230 8.0 0.0 0.00 0.00 0.00 89 1013.2
20260505101620 12 245 11.3 0.0 0.00 0.00 0.00 89 1013.0
20260505100002 12 235 12.9 0.0 0.00 0.00 0.00 89 1013.1
20260505094600 12 239 16.1 0.0 0.00 0.00 0.00 89 1013.0
20260505093044 12 243 16.1 0.0 0.00 0.00 0.00 88 1012.9
20260505091543 12 218 11.3 0.0 0.00 0.00 0.00 88 1012.8
20260505090039 12 227 16.1 0.0 0.00 0.00 0.00 89 1012.7
20260505084529 12 219 17.7 0.0 0.00 0.00 0.00 89 1012.8
20260505083027 12 228 14.5 0.0 0.00 0.00 0.00 89 1012.8
20260505081530 12 212 17.7 0.0 0.00 0.00 0.00 89 1012.7
20260505080028 11 219 14.5 0.0 0.00 0.00 0.00 89 1012.9
20260505074525 12 246 14.5 0.0 0.00 0.00 0.00 89 1013.0
20260505073040 12 233 19.3 0.0 0.00 0.00 0.00 89 1012.9
20260505071522 12 232 20.9 0.0 0.00 0.00 0.00 89 1012.9
20260505070009 12 245 17.7 0.0 0.00 0.00 0.00 89 1013.0
20260505064523 12 243 19.3 0.0 0.00 0.00 0.00 88 1013.1
20260505063007 12 239 19.3 0.0 0.00 0.00 0.00 88 1012.9
20260505061515 12 241 17.7 0.0 0.00 0.00 0.00 88 1012.8
20260505060007 12 246 17.7 0.0 0.00 0.00 0.00 88 1012.9
20260505054506 12 246 17.7 0.0 0.00 0.00 0.00 88 1013.1
20260505053005 12 241 19.3 0.0 0.00 0.00 0.00 88 1013.2
20260505051506 12 245 20.9 0.0 0.00 0.00 0.00 88 1013.1
20260505041557 12 239 22.5 0.0 0.00 0.00 0.00 87 1012.7
20260505040049 12 240 22.5 0.0 0.00 0.00 0.00 87 1012.4
20260505034547 12 227 19.3 0.0 0.00 0.00 0.00 86 1012.3
20260505033048 12 249 20.9 0.0 0.00 0.00 0.00 86 1012.2
20260505031604 12 249 22.5 0.0 0.00 0.00 0.00 86 1012.1
20260505030032 12 236 22.5 0.0 0.00 0.00 0.00 86 1012.0
20260505024538 12 247 20.9 0.0 0.00 0.00 0.00 86 1012.0
20260505023031 12 247 22.5 0.0 0.00 0.00 0.00 86 1012.0
20260505021530 12 235 19.3 0.0 0.00 0.00 0.00 86 1011.9
20260505020032 12 230 19.3 0.0 0.00 0.00 0.00 86 1011.9
20260505014535 13 237 20.9 0.0 0.00 0.00 0.00 85 1011.9
20260505013027 13 235 22.5 0.0 0.00 0.00 0.00 85 1012.0
20260505011532 13 243 24.1 0.0 0.00 0.00 0.00 85 1012.2
20260505010014 13 236 24.1 0.0 0.00 0.00 0.00 85 1012.4
20260505004529 13 230 25.7 0.0 0.00 0.00 0.00 84 1012.4
20260505003012 14 237 24.1 0.0 0.00 0.00 0.00 84 1012.5
20260505001512 14 226 24.1 0.0 0.00 0.00 0.00 84 1012.4
20260505000020 14 221 25.7 0.0 0.00 0.00 0.00 84 1012.5
20260504234510 14 241 25.7 0.0 0.00 0.00 0.00 84 1012.5
20260504233010 14 237 27.4 0.0 0.00 0.00 0.00 84 1012.5
20260504231508 14 239 27.4 0.0 0.00 0.00 0.00 85 1012.5
20260504230106 14 245 25.7 0.0 0.00 0.00 0.00 85 1012.6
20260504224554 14 223 25.7 0.0 0.00 0.00 0.00 86 1012.8
20260504223053 14 221 24.1 0.0 0.00 0.00 0.00 86 1012.8
20260504221559 14 244 25.7 0.0 0.00 0.00 0.00 87 1013.0
20260504220050 13 231 27.4 0.0 0.00 0.00 0.00 87 1013.2
20260504214550 13 227 25.7 0.0 0.00 0.00 0.00 88 1013.2
20260504213049 13 213 24.1 0.0 0.00 0.00 0.00 88 1013.2
20260504211548 13 237 25.7 0.0 0.00 0.00 0.00 88 1013.4
20260504210034 13 245 25.7 0.0 0.00 0.00 0.00 88 1013.3
20260504204537 13 240 27.4 0.0 0.00 0.00 0.00 88 1013.3
20260504203033 13 229 25.7 0.0 0.00 0.00 0.00 89 1013.4
20260504201531 13 241 24.1 0.0 0.00 0.00 0.00 89 1013.4
20260504200029 13 231 25.7 0.0 0.00 0.00 0.00 89 1013.3
20260504194529 13 235 22.5 0.0 0.00 0.00 0.00 89 1013.3
20260504193028 13 210 27.4 0.0 0.00 0.00 0.00 89 1013.0
20260504191526 12 235 27.4 0.0 0.00 0.00 0.00 89 1013.0
20260504190011 12 232 25.7 0.0 0.00 0.00 0.00 90 1013.0
20260504184510 12 229 22.5 0.0 0.00 0.00 0.00 89 1013.3
20260504183006 13 240 22.5 0.0 0.00 0.00 0.00 90 1013.2
20260504181507 12 225 20.9 0.0 0.00 0.00 0.00 90 1013.1
20260504180008 12 227 25.7 0.0 0.00 0.00 0.00 90 1013.0
20260504174504 12 220 24.1 0.0 0.00 0.00 0.00 90 1013.0
20260504173003 12 240 20.9 0.0 0.00 0.00 0.00 90 1013.0
20260504171502 11 231 29.0 0.0 0.00 0.00 0.00 90 1012.9